アトラス彗星

C/2019 T4 ( ATLAS )

English version
Home page
Updated on January 13, 2021

---------------------------------------------------------------------

・ プロフィール

発見日 2019年10月9日
発見光度 19.3等
発見者 Asteroid Terrestrial-Impact Last Alert System (ATLAS) search program

・ 写真集

・ 軌道要素

Epoch 2022 May 21.0 TT = JDT 2459720.5
T 2022 June  9.14137 TT                                 Rudenko
q   4.2425016            (2000.0)            P               Q
z  +0.0009923      Peri.  351.20001     -0.95992718     +0.05603800
 +/-0.0000013      Node   199.93933     -0.18195467     -0.86982891
e   0.9957903      Incl.   53.62861     -0.21314857     +0.49016060
From 199 observations 2019 Feb. 5-2020 Oct. 11, mean residual 0".3.

・ 星図

・ 光度変化

        m1 = -9.0 + 5 logΔ + 25   log r  [    ,-760]  (              〜2020年 5月10日)
        m1 =  4.0 + 5 logΔ + 10.0 log r  [-760,    ]  (2020年 5月10日〜              )

---------------------------------------------------------------------

軌道要素はM.P.E.C. 2020-U96に掲載されたものです。
星図はステラナビゲータ Ver.10 (アストロアーツ) で作成したものです。
光度グラフはComet for Windowsで作成したものです。

---------------------------------------------------------------------

Copyright(C) Seiichi Yoshida (comet@aerith.net). All rights reserved.